Time,TemperatureF,DewpointF,PressureIn,WindDirection,WindDirectionDegrees,WindSpeedMPH,WindSpeedGustMPH,Humidity,HourlyPrecipIn,Conditions,Clouds,dailyrainin,SoftwareType,DateUTC
2014-01-01 00:01:00,41.7,39.8,29.80,North,5,0.0,0.0,93,0.00,,,0.00,VWS V14.01,2014-01-01 08:01:00,
2014-01-01 00:10:00,41.5,39.7,29.80,North,5,0.0,0.0,93,0.00,,,0.00,VWS V14.01,2014-01-01 08:10:00,
2014-01-01 00:20:00,41.5,40.0,29.80,North,5,0.0,0.0,94,0.00,,,0.00,VWS V14.01,2014-01-01 08:20:00,
2014-01-01 00:30:00,41.7,40.1,29.77,North,5,0.0,0.0,94,0.00,,,0.00,VWS V14.01,2014-01-01 08:30:00,
2014-01-01 00:41:00,41.9,40.3,29.77,North,5,0.0,0.0,94,0.00,,,0.00,VWS V14.01,2014-01-01 08:41:00,
2014-01-01 00:51:00,42.1,40.8,29.77,North,5,0.0,0.0,95,0.00,,,0.00,VWS V14.01,2014-01-01 08:51:00,
2014-01-01 01:01:00,42.1,40.8,29.77,North,5,0.0,0.0,95,0.00,,,0.00,VWS V14.01,2014-01-01 09:01:00,
2014-01-01 01:10:00,41.2,39.6,29.77,SW,221,0.0,0.0,94,0.00,,,0.00,VWS V14.01,2014-01-01 09:10:00,
2014-01-01 01:20:00,41.0,39.7,29.77,SW,221,0.0,0.0,95,0.00,,,0.00,VWS V14.01,2014-01-01 09:20:00,
2014-01-01 01:30:00,40.8,39.5,29.77,SW,221,0.0,0.0,95,0.00,,,0.00,VWS V14.01,2014-01-01 09:30:00,
2014-01-01 01:41:00,41.0,39.7,29.77,SW,221,0.0,0.0,95,0.00,,,0.00,VWS V14.01,2014-01-01 09:41:00,
2014-01-01 01:50:00,41.2,40.1,29.77,SW,222,0.0,0.0,96,0.00,,,0.00,VWS V14.01,2014-01-01 09:50:00,
2014-01-01 02:01:00,41.4,40.3,29.77,SW,221,0.0,0.0,96,0.00,,,0.00,VWS V14.01,2014-01-01 10:01:00,
2014-01-01 02:11:00,41.2,39.9,29.77,SW,217,0.0,0.0,95,0.00,,,0.00,VWS V14.01,2014-01-01 10:11:00,
2014-01-01 02:20:00,40.6,39.3,29.80,SW,217,0.0,0.0,95,0.00,,,0.00,VWS V14.01,2014-01-01 10:20:00,
2014-01-01 02:30:00,40.3,39.0,29.80,SW,217,0.0,0.0,95,0.00,,,0.00,VWS V14.01,2014-01-01 10:30:00,
2014-01-01 02:40:00,40.1,38.8,29.80,SW,217,0.0,0.0,95,0.00,,,0.00,VWS V14.01,2014-01-01 10:40:00,
2014-01-01 02:50:00,40.1,39.0,29.77,SW,217,0.0,0.0,96,0.00,,,0.00,VWS V14.01,2014-01-01 10:50:00,
2014-01-01 03:01:00,40.1,38.8,29.80,SW,217,0.0,0.0,95,0.00,,,0.00,VWS V14.01,2014-01-01 11:01:00,
2014-01-01 03:11:00,39.9,38.6,29.80,SSW,209,0.0,0.0,95,0.00,,,0.00,VWS V14.01,2014-01-01 11:11:00,
2014-01-01 03:21:00,39.9,38.9,29.77,SSW,209,0.0,0.0,96,0.00,,,0.00,VWS V14.01,2014-01-01 11:21:00,
2014-01-01 03:30:00,39.7,38.4,29.77,SSW,209,0.0,0.0,95,0.00,,,0.00,VWS V14.01,2014-01-01 11:30:00,
2014-01-01 03:40:00,39.2,37.9,29.77,SSW,209,0.0,0.0,95,0.00,,,0.00,VWS V14.01,2014-01-01 11:40:00,
2014-01-01 03:50:00,39.0,37.7,29.77,SSW,209,0.0,0.0,95,0.00,,,0.00,VWS V14.01,2014-01-01 11:50:00,
2014-01-01 04:00:00,39.2,37.9,29.77,East,87,0.0,0.0,95,0.00,,,0.00,VWS V14.01,2014-01-01 12:00:00,
2014-01-01 04:11:00,38.8,37.5,29.77,East,93,0.0,0.0,95,0.00,,,0.00,VWS V14.01,2014-01-01 12:11:00,
2014-01-01 04:21:00,38.7,37.3,29.77,East,93,0.0,0.0,95,0.00,,,0.00,VWS V14.01,2014-01-01 12:21:00,
2014-01-01 04:31:00,38.8,37.8,29.77,East,93,0.0,0.0,96,0.00,,,0.00,VWS V14.01,2014-01-01 12:31:00,
2014-01-01 04:40:00,39.2,37.9,29.77,East,93,0.0,0.0,95,0.00,,,0.00,VWS V14.01,2014-01-01 12:40:00,
2014-01-01 04:50:00,39.4,38.1,29.77,East,93,0.0,0.0,95,0.00,,,0.00,VWS V14.01,2014-01-01 12:50:00,
2014-01-01 05:00:00,39.4,38.1,29.77,East,93,0.0,0.0,95,0.00,,,0.00,VWS V14.01,2014-01-01 13:00:00,
2014-01-01 05:10:00,39.4,38.1,29.77,East,93,0.0,0.0,95,0.00,,,0.00,VWS V14.01,2014-01-01 13:10:00,
2014-01-01 05:21:00,38.8,37.5,29.77,East,93,0.0,0.0,95,0.00,,,0.00,VWS V14.01,2014-01-01 13:21:00,
2014-01-01 05:31:00,38.7,37.3,29.77,East,93,0.0,0.0,95,0.00,,,0.00,VWS V14.01,2014-01-01 13:31:00,
2014-01-01 05:41:00,38.7,37.3,29.77,East,93,0.0,0.0,95,0.00,,,0.00,VWS V14.01,2014-01-01 13:41:00,
2014-01-01 05:50:00,38.7,37.1,29.77,East,93,0.0,0.0,94,0.00,,,0.00,VWS V14.01,2014-01-01 13:50:00,
2014-01-01 06:00:00,38.8,37.3,29.77,East,93,0.0,0.0,94,0.00,,,0.00,VWS V14.01,2014-01-01 14:00:00,
2014-01-01 06:10:00,38.7,36.8,29.77,East,93,0.0,0.0,93,0.00,,,0.00,VWS V14.01,2014-01-01 14:10:00,
2014-01-01 06:21:00,38.5,36.6,29.77,East,93,0.0,0.0,93,0.00,,,0.00,VWS V14.01,2014-01-01 14:21:00,
2014-01-01 06:31:00,38.5,36.6,29.77,East,93,0.0,0.0,93,0.00,,,0.00,VWS V14.01,2014-01-01 14:31:00,
2014-01-01 06:40:00,38.1,36.3,29.77,East,93,0.0,0.0,93,0.00,,,0.00,VWS V14.01,2014-01-01 14:40:00,
2014-01-01 06:50:00,37.6,35.5,29.77,East,93,0.0,0.0,92,0.00,,,0.00,VWS V14.01,2014-01-01 14:50:00,
2014-01-01 07:00:00,37.4,35.3,29.77,East,93,0.0,0.0,92,0.00,,,0.00,VWS V14.01,2014-01-01 15:00:00,
2014-01-01 07:10:00,37.4,35.3,29.77,East,93,0.0,0.0,92,0.00,,,0.00,VWS V14.01,2014-01-01 15:10:00,
2014-01-01 07:20:00,37.4,35.3,29.77,East,93,0.0,0.0,92,0.00,,,0.00,VWS V14.01,2014-01-01 15:20:00,
2014-01-01 07:30:00,37.4,35.3,29.77,East,93,0.0,0.0,92,0.00,,,0.00,VWS V14.01,2014-01-01 15:30:00,
2014-01-01 07:41:00,37.0,35.2,29.77,East,93,0.0,0.0,93,0.00,,,0.00,VWS V14.01,2014-01-01 15:41:00,
2014-01-01 07:51:00,37.4,35.6,29.80,East,93,0.0,0.0,93,0.00,,SCT250,0.00,VWS V14.01,2014-01-01 15:51:00,
2014-01-01 08:01:00,38.1,36.3,29.77,East,93,0.0,0.0,93,0.00,,SCT250,0.00,VWS V14.01,2014-01-01 16:01:00,
2014-01-01 08:10:00,38.7,36.8,29.77,East,93,0.0,0.0,93,0.00,,SCT250,0.00,VWS V14.01,2014-01-01 16:10:00,
2014-01-01 08:20:00,39.7,38.2,29.80,East,93,0.0,0.0,94,0.00,,SCT250,0.00,VWS V14.01,2014-01-01 16:20:00,
2014-01-01 08:30:00,41.2,39.3,29.80,East,93,0.0,0.0,93,0.00,,SCT250,0.00,VWS V14.01,2014-01-01 16:30:00,
2014-01-01 08:41:00,42.4,40.0,29.80,East,93,0.0,0.0,91,0.00,,SCT250,0.00,VWS V14.01,2014-01-01 16:41:00,
2014-01-01 08:51:00,43.7,40.7,29.80,East,93,0.0,0.0,89,0.00,,,0.00,VWS V14.01,2014-01-01 16:51:00,
2014-01-01 09:00:00,44.2,40.3,29.80,East,101,0.0,0.0,86,0.00,,,0.00,VWS V14.01,2014-01-01 17:00:00,
2014-01-01 09:11:00,44.2,40.0,29.80,ESE,104,0.0,0.0,85,0.00,,,0.00,VWS V14.01,2014-01-01 17:11:00,
2014-01-01 09:20:00,43.9,37.8,29.80,ESE,104,0.0,0.0,79,0.00,,,0.00,VWS V14.01,2014-01-01 17:20:00,
2014-01-01 09:30:00,44.8,39.3,29.80,ESE,104,0.0,0.0,81,0.00,,,0.00,VWS V14.01,2014-01-01 17:30:00,
2014-01-01 09:40:00,45.1,37.7,29.80,SSE,151,0.0,0.0,75,0.00,,,0.00,VWS V14.01,2014-01-01 17:40:00,
2014-01-01 09:50:00,46.0,39.6,29.80,South,176,0.0,0.0,78,0.00,,,0.00,VWS V14.01,2014-01-01 17:50:00,
2014-01-01 10:01:00,48.2,40.7,29.80,South,176,0.0,0.0,75,0.00,,,0.00,VWS V14.01,2014-01-01 18:01:00,
2014-01-01 10:11:00,50.4,41.3,29.80,South,176,0.0,0.0,71,0.00,,,0.00,VWS V14.01,2014-01-01 18:11:00,
2014-01-01 10:20:00,50.5,38.8,29.80,SW,225,0.0,3.6,64,0.00,,,0.00,VWS V14.01,2014-01-01 18:20:00,
2014-01-01 10:30:00,50.7,38.2,29.80,WSW,256,3.1,4.0,62,0.00,,,0.00,VWS V14.01,2014-01-01 18:30:00,
2014-01-01 10:40:00,51.3,38.3,29.80,WNW,296,0.0,4.0,61,0.00,,,0.00,VWS V14.01,2014-01-01 18:40:00,
2014-01-01 10:50:00,52.2,38.3,29.80,WSW,241,0.0,3.6,59,0.00,,SCT250,0.00,VWS V14.01,2014-01-01 18:50:00,
2014-01-01 11:01:00,52.7,37.5,29.80,WNW,301,2.7,4.0,56,0.00,,SCT250,0.00,VWS V14.01,2014-01-01 19:01:00,
2014-01-01 11:10:00,53.4,36.7,29.80,SW,232,4.0,4.0,53,0.00,,SCT250,0.00,VWS V14.01,2014-01-01 19:10:00,
2014-01-01 11:20:00,54.5,36.8,29.80,WSW,248,0.0,4.0,51,0.00,,SCT250,0.00,VWS V14.01,2014-01-01 19:20:00,
2014-01-01 11:30:00,55.4,36.6,29.77,WSW,239,2.2,3.6,49,0.00,,SCT250,0.00,VWS V14.01,2014-01-01 19:30:00,
2014-01-01 11:40:00,55.9,37.1,29.77,WSW,241,0.0,3.1,49,0.00,,SCT250,0.00,VWS V14.01,2014-01-01 19:40:00,
2014-01-01 11:50:00,56.8,37.4,29.77,West,271,2.2,3.6,48,0.00,,SCT250,0.00,VWS V14.01,2014-01-01 19:50:00,
2014-01-01 12:00:00,57.6,37.5,29.77,SW,224,0.0,4.0,47,0.00,,SCT250,0.00,VWS V14.01,2014-01-01 20:00:00,
2014-01-01 12:10:00,57.7,37.7,29.77,SW,227,0.0,4.0,47,0.00,,SCT250,0.00,VWS V14.01,2014-01-01 20:10:00,
2014-01-01 12:21:00,58.5,36.1,29.77,West,267,0.0,4.5,43,0.00,,SCT250,0.00,VWS V14.01,2014-01-01 20:21:00,
2014-01-01 12:30:00,59.7,36.0,29.74,NW,318,0.0,4.9,41,0.00,,SCT250,0.00,VWS V14.01,2014-01-01 20:30:00,
2014-01-01 12:41:00,60.1,36.3,29.74,West,272,0.0,4.9,41,0.00,,SCT250,0.00,VWS V14.01,2014-01-01 20:41:00,
2014-01-01 12:50:00,60.6,35.5,29.74,NNW,331,0.0,4.9,39,0.00,,SCT250,0.00,VWS V14.01,2014-01-01 20:50:00,
2014-01-01 13:00:00,61.0,34.5,29.74,WNW,300,2.7,4.0,37,0.00,,SCT250,0.00,VWS V14.01,2014-01-01 21:00:00,
2014-01-01 13:10:00,61.0,34.5,29.74,SW,234,0.0,4.0,37,0.00,,SCT250,0.00,VWS V14.01,2014-01-01 21:10:00,
2014-01-01 13:21:00,61.0,34.5,29.74,WSW,243,0.0,3.1,37,0.00,,SCT250,0.00,VWS V14.01,2014-01-01 21:21:00,
2014-01-01 13:31:00,61.3,34.9,29.74,WSW,242,0.0,0.0,37,0.00,,SCT250,0.00,VWS V14.01,2014-01-01 21:31:00,
2014-01-01 13:40:00,61.7,35.2,29.74,WSW,242,0.0,0.0,37,0.00,,SCT250,0.00,VWS V14.01,2014-01-01 21:40:00,
2014-01-01 13:51:00,62.2,35.0,29.74,West,270,0.0,3.1,36,0.00,,BKN200,0.00,VWS V14.01,2014-01-01 21:51:00,
2014-01-01 14:00:00,62.4,35.1,29.74,WSW,254,0.0,3.6,36,0.00,,BKN200,0.00,VWS V14.01,2014-01-01 22:00:00,
2014-01-01 14:10:00,62.6,35.3,29.74,SW,223,0.0,0.0,36,0.00,,BKN200,0.00,VWS V14.01,2014-01-01 22:10:00,
2014-01-01 14:20:00,62.6,35.3,29.71,West,261,0.0,0.0,36,0.00,,BKN200,0.00,VWS V14.01,2014-01-01 22:20:00,
2014-01-01 14:31:00,62.8,35.5,29.74,West,261,0.0,0.0,36,0.00,,BKN200,0.00,VWS V14.01,2014-01-01 22:31:00,
2014-01-01 14:40:00,63.1,35.8,29.74,WSW,254,0.0,0.0,36,0.00,,BKN200,0.00,VWS V14.01,2014-01-01 22:40:00,
2014-01-01 14:51:00,63.5,36.1,29.71,West,266,0.0,0.0,36,0.00,,BKN200,0.00,VWS V14.01,2014-01-01 22:51:00,
2014-01-01 15:01:00,63.9,36.4,29.71,West,260,0.0,0.0,36,0.00,,BKN200,0.00,VWS V14.01,2014-01-01 23:01:00,
2014-01-01 15:10:00,64.2,37.4,29.71,West,271,0.0,0.0,37,0.00,,BKN200,0.00,VWS V14.01,2014-01-01 23:10:00,
2014-01-01 15:20:00,64.4,37.6,29.71,NW,319,0.0,0.0,37,0.00,,BKN200,0.00,VWS V14.01,2014-01-01 23:20:00,
2014-01-01 15:30:00,64.4,36.9,29.71,NW,321,0.0,0.0,36,0.00,,BKN200,0.00,VWS V14.01,2014-01-01 23:30:00,
2014-01-01 15:41:00,64.2,38.1,29.71,NW,326,0.0,0.0,38,0.00,,BKN200,0.00,VWS V14.01,2014-01-01 23:41:00,
2014-01-01 15:51:00,63.7,39.6,29.71,NNW,340,0.0,0.0,41,0.00,,BKN250,0.00,VWS V14.01,2014-01-01 23:51:00,
2014-01-01 16:00:00,62.8,39.4,29.71,NE,38,0.0,0.0,42,0.00,,BKN250,0.00,VWS V14.01,2014-01-02 00:00:00,
2014-01-01 16:10:00,61.7,40.7,29.71,NE,38,0.0,0.0,46,0.00,,BKN250,0.00,VWS V14.01,2014-01-02 00:10:00,
2014-01-01 16:20:00,60.8,41.5,29.71,NE,38,0.0,0.0,49,0.00,,BKN250,0.00,VWS V14.01,2014-01-02 00:20:00,
2014-01-01 16:30:00,60.1,41.9,29.71,NE,38,0.0,0.0,51,0.00,,BKN250,0.00,VWS V14.01,2014-01-02 00:30:00,
2014-01-01 16:40:00,59.2,41.6,29.71,NE,38,0.0,0.0,52,0.00,,BKN250,0.00,VWS V14.01,2014-01-02 00:40:00,
2014-01-01 16:50:00,58.5,41.4,29.71,NE,38,0.0,0.0,53,0.00,,BKN250,0.00,VWS V14.01,2014-01-02 00:50:00,
2014-01-01 17:00:00,57.7,41.2,29.71,NE,38,0.0,0.0,54,0.00,,BKN250,0.00,VWS V14.01,2014-01-02 01:00:00,
2014-01-01 17:11:00,56.8,41.3,29.71,NE,38,0.0,0.0,56,0.00,,BKN250,0.00,VWS V14.01,2014-01-02 01:11:00,
2014-01-01 17:21:00,55.8,40.3,29.71,NE,38,0.0,0.0,56,0.00,,BKN250,0.00,VWS V14.01,2014-01-02 01:21:00,
2014-01-01 17:30:00,55.0,41.0,29.71,NE,38,0.0,0.0,59,0.00,,BKN250,0.00,VWS V14.01,2014-01-02 01:30:00,
2014-01-01 17:40:00,54.5,40.9,29.71,NE,39,0.0,0.0,60,0.00,,BKN250,0.00,VWS V14.01,2014-01-02 01:40:00,
2014-01-01 17:50:00,54.0,40.8,29.71,NE,39,0.0,0.0,61,0.00,,SCT250,0.00,VWS V14.01,2014-01-02 01:50:00,
2014-01-01 18:01:00,53.4,41.2,29.71,NE,39,0.0,0.0,63,0.00,,SCT250,0.00,VWS V14.01,2014-01-02 02:01:00,
2014-01-01 18:11:00,52.9,41.5,29.71,NE,39,0.0,0.0,65,0.00,,SCT250,0.00,VWS V14.01,2014-01-02 02:11:00,
2014-01-01 18:21:00,52.7,41.7,29.74,NE,39,0.0,0.0,66,0.00,,SCT250,0.00,VWS V14.01,2014-01-02 02:21:00,
2014-01-01 18:30:00,52.7,42.1,29.74,NE,39,0.0,0.0,67,0.00,,SCT250,0.00,VWS V14.01,2014-01-02 02:30:00,
2014-01-01 18:40:00,52.7,42.5,29.74,NE,39,0.0,0.0,68,0.00,,SCT250,0.00,VWS V14.01,2014-01-02 02:40:00,
2014-01-01 18:50:00,52.5,42.3,29.74,NE,39,0.0,0.0,68,0.00,,CLR,0.00,VWS V14.01,2014-01-02 02:50:00,
2014-01-01 19:00:00,51.8,42.0,29.74,NE,39,0.0,0.0,69,0.00,,CLR,0.00,VWS V14.01,2014-01-02 03:00:00,
2014-01-01 19:10:00,51.4,42.0,29.74,NE,39,0.0,0.0,70,0.00,,CLR,0.00,VWS V14.01,2014-01-02 03:10:00,
2014-01-01 19:20:00,50.9,41.8,29.74,NE,39,0.0,0.0,71,0.00,,CLR,0.00,VWS V14.01,2014-01-02 03:20:00,
2014-01-01 19:31:00,50.7,42.0,29.74,NE,39,0.0,0.0,72,0.00,,CLR,0.00,VWS V14.01,2014-01-02 03:31:00,
2014-01-01 19:40:00,50.5,42.2,29.74,NE,39,0.0,0.0,73,0.00,,CLR,0.00,VWS V14.01,2014-01-02 03:40:00,
2014-01-01 19:50:00,50.4,42.4,29.74,NE,39,0.0,0.0,74,0.00,,CLR,0.00,VWS V14.01,2014-01-02 03:50:00,
2014-01-01 20:00:00,50.0,42.0,29.74,NE,39,0.0,0.0,74,0.00,,CLR,0.00,VWS V14.01,2014-01-02 04:00:00,
2014-01-01 20:10:00,49.6,42.0,29.74,NE,39,0.0,0.0,75,0.00,,CLR,0.00,VWS V14.01,2014-01-02 04:10:00,
2014-01-01 20:20:00,49.5,42.2,29.74,NE,39,0.0,0.0,76,0.00,,CLR,0.00,VWS V14.01,2014-01-02 04:20:00,
2014-01-01 20:31:00,49.3,42.4,29.74,NE,38,0.0,0.0,77,0.00,,CLR,0.00,VWS V14.01,2014-01-02 04:31:00,
2014-01-01 20:41:00,49.1,42.2,29.74,NE,38,0.0,0.0,77,0.00,,CLR,0.00,VWS V14.01,2014-01-02 04:41:00,
2014-01-01 20:51:00,48.7,41.9,29.74,NE,38,0.0,0.0,77,0.00,,CLR,0.00,VWS V14.01,2014-01-02 04:51:00,
2014-01-01 21:01:00,48.4,41.5,29.74,NE,38,0.0,0.0,77,0.00,,CLR,0.00,VWS V14.01,2014-01-02 05:01:00,
2014-01-01 21:10:00,48.2,41.7,29.74,NE,38,0.0,0.0,78,0.00,,CLR,0.00,VWS V14.01,2014-01-02 05:10:00,
2014-01-01 21:20:00,48.0,41.5,29.74,NE,38,0.0,0.0,78,0.00,,CLR,0.00,VWS V14.01,2014-01-02 05:20:00,
2014-01-01 21:31:00,47.7,41.5,29.74,NE,38,0.0,0.0,79,0.00,,CLR,0.00,VWS V14.01,2014-01-02 05:31:00,
2014-01-01 21:40:00,47.5,41.3,29.74,NE,38,0.0,0.0,79,0.00,,CLR,0.00,VWS V14.01,2014-01-02 05:40:00,
2014-01-01 21:51:00,47.3,41.5,29.74,NE,38,0.0,0.0,80,0.00,,CLR,0.00,VWS V14.01,2014-01-02 05:51:00,
2014-01-01 22:01:00,47.3,41.5,29.74,NE,38,0.0,0.0,80,0.00,,CLR,0.00,VWS V14.01,2014-01-02 06:01:00,
2014-01-01 22:11:00,47.1,41.3,29.74,NE,38,0.0,0.0,80,0.00,,CLR,0.00,VWS V14.01,2014-01-02 06:11:00,
2014-01-01 22:20:00,46.8,41.2,29.77,NE,38,0.0,0.0,81,0.00,,CLR,0.00,VWS V14.01,2014-01-02 06:20:00,
2014-01-01 22:30:00,46.4,40.9,29.77,NE,39,0.0,0.0,81,0.00,,CLR,0.00,VWS V14.01,2014-01-02 06:30:00,
2014-01-01 22:41:00,46.4,41.2,29.77,NE,41,0.0,0.0,82,0.00,,CLR,0.00,VWS V14.01,2014-01-02 06:41:00,
2014-01-01 22:51:00,46.4,41.2,29.77,NE,41,0.0,0.0,82,0.00,,CLR,0.00,VWS V14.01,2014-01-02 06:51:00,
2014-01-01 23:01:00,46.0,40.9,29.77,NE,41,0.0,0.0,82,0.00,,CLR,0.00,VWS V14.01,2014-01-02 07:01:00,
2014-01-01 23:10:00,45.7,40.5,29.77,NE,41,0.0,0.0,82,0.00,,CLR,0.00,VWS V14.01,2014-01-02 07:10:00,
2014-01-01 23:20:00,45.5,40.7,29.77,NE,41,0.0,0.0,83,0.00,,CLR,0.00,VWS V14.01,2014-01-02 07:20:00,
2014-01-01 23:30:00,45.7,41.1,29.77,NE,41,0.0,0.0,84,0.00,,CLR,0.00,VWS V14.01,2014-01-02 07:30:00,
2014-01-01 23:40:00,45.9,41.3,29.77,NE,41,0.0,0.0,84,0.00,,CLR,0.00,VWS V14.01,2014-01-02 07:40:00,
2014-01-01 23:51:00,45.3,40.5,29.74,NE,41,0.0,0.0,83,0.00,,CLR,0.00,VWS V14.01,2014-01-02 07:51:00,